[[{"header":{"parameterUnit":"m.s-1","parameterCategory":2,"la1":30.2991,"la2":30.254,"lo1":-89.0895,"lo2":-89.0444,"dy":0.0017,"dx":0.0017,"nx":28,"ny":28,"refTime":"2025-07-14T09:00:00:Z","depth":"0","parameterNumber":2,"parameterNumberName":"U-component_of_CURRENTS"},"data":[0,0,0,0,0,0,0,0,0,0,0,0,0,0,0,0,0,0,0,0,0,0,0,0,0,0,0,0,0,0,0,0,0,0,0,0,0,0,0,0,0,0,0,0,0,0,0,0,0,0,0,0,0,0,0,0,0,0,0.1628,0.1628,0,0.1598,0.1597,0.1597,0.1569,0.1569,0.1569,0.1569,0.1613,0.1614,0.1616,0,0,0,0,0,0,0,0,0,0,0,0,0,0.156,0.1562,0.1628,0.1628,0.1628,0.1598,0.1597,0.1596,0.1569,0.1569,0.1569,0.1569,0.1613,0.1614,0.1616,0,0,0,0,0,0,0,0,0,0,0,0,0,0.1562,0.1562,0.1628,0.1614,0.1613,0.1598,0.1597,0.1596,0.1569,0.1569,0.1569,0.1569,0.1613,0.1614,0.1616,0.1625,0,0,0.1621,0.1622,0,0,0,0,0,0,0,0,0.1562,0.1564,0.1616,0.1615,0.1613,0.1591,0.159,0.1611,0.1569,0.1581,0.1569,0.1569,0.1616,0.1617,0.1604,0.1627,0.1629,0.1621,0.1622,0.1623,0.1623,0,0,0,0,0,0,0,0.1562,0.1564,0.1612,0.1616,0.1615,0.1574,0.1575,0.1592,0.1596,0.158,0.1579,0.1582,0.1615,0.1602,0.1605,0.1629,0.1621,0.1623,0.1624,0.1624,0.1685,0.1685,0,0,0,0,0,0,0.158,0.1565,0.1613,0.1611,0.1592,0.1576,0.1577,0.1595,0.1594,0.1595,0.1582,0.1581,0.1599,0.1603,0.1607,0.1647,0.1623,0.1625,0.1626,0.1684,0.1685,0.1686,0,0,0,0,0,0,0.1579,0.1585,0.1614,0.159,0.1591,0.1579,0.1598,0.1594,0.1588,0.1596,0.1597,0.1581,0.16,0.1604,0.1628,0.1648,0.1625,0.1627,0.1683,0.1684,0.1685,0.1711,0,0,0,0,0,0,0.1577,0.1585,0.1592,0.1592,0.1594,0.1607,0.1598,0.1594,0.1592,0.159,0.1596,0.1599,0.16,0.1626,0.163,0.165,0.1628,0.1683,0.1684,0.1685,0.1709,0.1712,0.1715,0,0,0,0,0,0.1575,0.1583,0.1593,0.1598,0.1608,0.1607,0.1603,0.1591,0.1592,0.1585,0.1596,0.1599,0.1636,0.1628,0.1632,0.1654,0.1682,0.1684,0.1685,0.1708,0.1712,0.1715,0,0,0,0,0,0,0.1531,0.1581,0.1592,0.1608,0.1611,0.1604,0.1596,0.1596,0.1596,0.1597,0.1608,0.1612,0.1644,0.1643,0.1634,0.1673,0.166,0.1662,0.1675,0.1679,0.1682,0.1673,0.163,0,0,0,0,0,0.1535,0.1562,0.159,0.1593,0.1607,0.1605,0.1601,0.1597,0.1602,0.16,0.1611,0.1625,0.1651,0.166,0.1675,0.1696,0.1727,0.1712,0.1715,0.1717,0.1713,0.1772,0.178,0.169,0.169,0.169,0,0,0.1515,0.1544,0.1557,0.1587,0.159,0.1604,0.1601,0.1599,0.1605,0.1609,0.1621,0.164,0.166,0.1684,0.1697,0.1686,0.1766,0.1719,0.1721,0.1715,0.1774,0.1783,0.1791,0.1691,0.1691,0.169,0,0,0.149,0.1524,0.1545,0.156,0.1579,0.1588,0.1595,0.1604,0.1607,0.1625,0.1637,0.1665,0.1691,0.1708,0.1723,0.1752,0.1785,0.1759,0.1763,0.1821,0.1829,0.1837,0.1919,0.1933,0.1755,0.1755,0.1755,0,0.1467,0.1502,0.1539,0.156,0.157,0.159,0.1601,0.161,0.1619,0.1631,0.1632,0.1688,0.1703,0.1748,0.1752,0.176,0.1805,0.175,0.1826,0.1834,0.1841,0.1923,0.1939,0.1756,0.1756,0.1756,0.1756,0,0.1466,0.149,0.1499,0.155,0.1559,0.1568,0.1602,0.1614,0.1631,0.1644,0.169,0.1714,0.1745,0.1761,0.1765,0.1822,0.1845,0.1831,0.1819,0.1852,0.1937,0.1952,0.1758,0.1758,0.1757,0.1757,0,0,0.1444,0.1494,0.15,0.1519,0.1559,0.1569,0.1594,0.1627,0.1651,0.1675,0.1713,0.1754,0.1769,0.1786,0.1806,0.1848,0.1947,0.1856,0.1858,0.1941,0.2103,0.2225,0.2255,0.1949,0.1952,0.1953,0.2154,0,0.1439,0.1471,0.1497,0.1519,0.1545,0.1573,0.1595,0.1622,0.1655,0.1698,0.1742,0.1786,0.1781,0.1807,0.1849,0.1926,0.1984,0.1895,0.2054,0.2059,0.2167,0.2275,0.2346,0.2539,0.2169,0.2172,0.2174,0,0.1447,0.1472,0.1492,0.1526,0.154,0.155,0.1598,0.1617,0.168,0.1707,0.1757,0.1798,0.1877,0.1862,0.2013,0.196,0.2028,0.2084,0.2093,0.2204,0.2211,0.244,0.2582,0.2477,0.2198,0.2196,0.2194,0,0.1435,0.1472,0.1486,0.15,0.1541,0.1549,0.1569,0.1617,0.1646,0.1719,0.1764,0.1847,0.1918,0.2002,0.2131,0.2074,0.2315,0.2251,0.2431,0.2441,0.2531,0.2546,0.2592,0.2357,0.2356,0.2356,0.2355,0,0.1437,0.1453,0.1482,0.1496,0.1513,0.154,0.1565,0.1596,0.1656,0.1713,0.1767,0.1858,0.1955,0.2104,0.2178,0.24,0.2366,0.2471,0.2512,0.2546,0.2559,0.2494,0.2422,0.2363,0.2361,0.236,0.2359,0,0.1425,0.1446,0.1467,0.15,0.1508,0.152,0.1557,0.1587,0.1641,0.1726,0.1757,0.1901,0.2118,0.2253,0.2438,0.2499,0.2644,0.2739,0.2795,0.284,0.2881,0.2809,0.2815,0.2792,0.2962,0.2966,0.297,0,0.1416,0.1429,0.1461,0.1474,0.1487,0.1509,0.1529,0.1572,0.1612,0.177,0.1824,0.2053,0.2249,0.2601,0.2787,0.3012,0.2847,0.3151,0.3043,0.2937,0.2886,0.2682,0.2644,0.3182,0.3187,0.3191,0.3194,0,0.1408,0.142,0.1446,0.1468,0.1486,0.1509,0.1544,0.1577,0.1659,0.1763,0.1961,0.214,0.2528,0.2824,0.3124,0.3257,0.3057,0.3245,0.3114,0.3067,0.287,0.2851,0.2992,0.3232,0.3228,0.3225,0.3223,0.3222,0.1401,0.1416,0.1449,0.1473,0.1491,0.1523,0.1549,0.1622,0.1721,0.1895,0.2057,0.2337,0.2742,0.3214,0.3332,0.3528,0.3357,0.3463,0.3393,0.3198,0.3145,0.3395,0.3684,0.3683,0.3682,0.3681,0.3681,0,0.14,0.143,0.1452,0.1485,0.1502,0.1513,0.1571,0.1618,0.1755,0.1951,0.2161,0.262,0.3002,0.3296,0.3642,0.363,0.3489,0.3555,0.3245,0.3208,0.3449,0.3427,0.37,0.37,0.37,0.37,0.37,0.37,0.1404,0.1435,0.1454,0.149,0.151,0.1539,0.1576,0.167,0.1795,0.2073,0.2313,0.2536,0.2939,0.3402,0.3576,0.3569,0.3301,0.3273,0.3136,0.3261,0.3242,0.3224,0.3182,0.3399,0.3399,0.2847,0.2843,0.284]},{"header":{"parameterUnit":"m.s-1","parameterCategory":2,"la1":30.2991,"la2":30.254,"lo1":-89.0895,"lo2":-89.0444,"dy":0.0017,"dx":0.0017,"nx":28,"ny":28,"refTime":"2025-07-14T09:00:00:Z","depth":"0","parameterNumber":3,"parameterNumberName":"V-component_of_CURRENTS"},"data":[0,0,0,0,0,0,0,0,0,0,0,0,0,0,0,0,0,0,0,0,0,0,0,0,0,0,0,0,0,0,0,0,0,0,0,0,0,0,0,0,0,0,0,0,0,0,0,0,0,0,0,0,0,0,0,0,0,0,-0.008,-0.008,0,-0.0134,-0.0135,-0.0136,-0.0133,-0.0132,-0.0131,-0.013,-0.0238,-0.0242,-0.0246,0,0,0,0,0,0,0,0,0,0,0,0,0,-0.0074,-0.0073,-0.008,-0.008,-0.0081,-0.0134,-0.0135,-0.0136,-0.0133,-0.0132,-0.0131,-0.013,-0.0237,-0.0242,-0.0246,0,0,0,0,0,0,0,0,0,0,0,0,0,-0.01,-0.0073,-0.008,-0.0083,-0.0084,-0.0134,-0.0135,-0.0136,-0.0134,-0.0132,-0.013,-0.0129,-0.0235,-0.0241,-0.0247,-0.0314,0,0,-0.0265,-0.0267,0,0,0,0,0,0,0,0,-0.0098,-0.01,-0.0082,-0.0083,-0.0084,-0.0123,-0.0172,-0.0198,-0.0134,-0.0118,-0.013,-0.0128,-0.0204,-0.0212,-0.0229,-0.0319,-0.0324,-0.0265,-0.0269,-0.0271,-0.0273,0,0,0,0,0,0,0,-0.0096,-0.0098,-0.0104,-0.0083,-0.0084,-0.0117,-0.0118,-0.0178,-0.0172,-0.0119,-0.0118,-0.012,-0.0205,-0.0224,-0.0232,-0.0326,-0.0265,-0.027,-0.0274,-0.0276,-0.0414,-0.0414,0,0,0,0,0,0,-0.008,-0.0096,-0.0102,-0.0106,-0.0084,-0.0117,-0.0119,-0.0114,-0.0171,-0.0176,-0.0121,-0.012,-0.0215,-0.0225,-0.0236,-0.0269,-0.0271,-0.0276,-0.028,-0.0414,-0.0414,-0.0414,0,0,0,0,0,0,-0.0079,-0.008,-0.01,-0.01,-0.0105,-0.0118,-0.0113,-0.0116,-0.0129,-0.0171,-0.0178,-0.013,-0.0214,-0.0228,-0.0265,-0.0275,-0.0279,-0.0284,-0.0413,-0.0414,-0.0414,-0.0368,0,0,0,0,0,0,-0.0079,-0.0079,-0.0077,-0.0099,-0.0104,-0.0129,-0.0115,-0.0118,-0.0132,-0.013,-0.0182,-0.019,-0.0214,-0.0256,-0.0271,-0.0283,-0.0289,-0.0413,-0.0414,-0.0414,-0.037,-0.0367,-0.0365,0,0,0,0,0,-0.0078,-0.0074,-0.0077,-0.0078,-0.0098,-0.013,-0.0137,-0.0143,-0.0133,-0.0148,-0.0161,-0.0188,-0.0268,-0.0261,-0.0278,-0.0293,-0.0413,-0.0414,-0.0414,-0.0371,-0.0367,-0.0365,0,0,0,0,0,0,-0.0066,-0.0074,-0.0077,-0.0074,-0.0101,-0.0128,-0.0139,-0.0147,-0.0172,-0.017,-0.0197,-0.0208,-0.0243,-0.0277,-0.0268,-0.0332,-0.0344,-0.0348,-0.0306,-0.0303,-0.0301,-0.0276,-0.0294,0,0,0,0,0,-0.0064,-0.0064,-0.0085,-0.0086,-0.0097,-0.0122,-0.0136,-0.0148,-0.0169,-0.0178,-0.0206,-0.0236,-0.0264,-0.0287,-0.0325,-0.0371,-0.0379,-0.039,-0.0387,-0.0385,-0.0376,-0.0383,-0.0379,-0.0416,-0.0416,-0.0416,0,0,-0.0057,-0.0064,-0.0063,-0.0085,-0.0104,-0.0121,-0.0127,-0.0154,-0.016,-0.0191,-0.0208,-0.0237,-0.0274,-0.0307,-0.0328,-0.0335,-0.038,-0.0386,-0.0383,-0.0375,-0.0383,-0.0379,-0.0375,-0.0416,-0.0416,-0.0416,0,0,-0.0052,-0.0054,-0.0058,-0.0082,-0.0114,-0.0129,-0.0135,-0.0169,-0.0173,-0.0205,-0.0211,-0.0235,-0.0299,-0.0309,-0.0324,-0.0338,-0.0366,-0.0362,-0.0335,-0.0342,-0.0338,-0.0335,-0.0339,-0.0337,-0.0362,-0.0362,-0.0362,0,-0.0043,-0.0044,-0.0068,-0.0085,-0.0091,-0.0127,-0.0134,-0.0156,-0.0194,-0.0187,-0.0205,-0.025,-0.0292,-0.0299,-0.0301,-0.0333,-0.0339,-0.0341,-0.0336,-0.0334,-0.0331,-0.0337,-0.0335,-0.0359,-0.036,-0.036,-0.036,0,-0.0049,-0.005,-0.0056,-0.0076,-0.0096,-0.0111,-0.0138,-0.0153,-0.0163,-0.0174,-0.0188,-0.0233,-0.025,-0.0276,-0.0298,-0.0302,-0.0313,-0.0329,-0.0338,-0.0324,-0.0331,-0.033,-0.0356,-0.0357,-0.0358,-0.0358,0,0,-0.001,-0.0047,-0.0048,-0.0047,-0.0087,-0.0098,-0.0108,-0.0112,-0.0092,-0.0143,-0.0112,-0.0175,-0.0191,-0.0209,-0.0242,-0.0257,-0.0258,-0.0288,-0.0289,-0.0281,-0.0268,-0.0259,-0.0257,-0.0272,-0.0272,-0.0271,-0.0278,0,0.0003,-0.0013,-0.0035,-0.0036,-0.0036,-0.0062,-0.0056,-0.0071,-0.0079,-0.0067,-0.0103,-0.0105,-0.0167,-0.0172,-0.0197,-0.0232,-0.0253,-0.0255,-0.0292,-0.0293,-0.0277,-0.0254,-0.0212,-0.0213,-0.0277,-0.0277,-0.0277,0,0.0013,0.0009,0.0006,0.0014,0.0013,0.0008,0.003,0.0024,0.0027,0.0023,0.0011,-0.0017,-0.004,-0.0098,-0.0153,-0.0149,-0.0209,-0.0247,-0.0248,-0.0252,-0.0281,-0.0238,-0.0208,-0.0357,-0.0275,-0.0276,-0.0276,0,0.0061,0.0048,0.0056,0.005,0.004,0.0055,0.0059,0.006,0.0082,0.0085,0.0107,0.0068,0.0061,-0.0011,-0.0097,-0.0126,-0.015,-0.0198,-0.0247,-0.0247,-0.0224,-0.0222,-0.0329,-0.0245,-0.0245,-0.0245,-0.0245,0,0.0094,0.0109,0.0082,0.0088,0.0123,0.0101,0.0146,0.0144,0.0167,0.0217,0.016,0.0198,0.008,0.005,-0.005,-0.0124,-0.0113,-0.023,-0.0243,-0.0208,-0.0204,-0.0344,-0.0449,-0.0245,-0.0245,-0.0245,-0.0245,0,0.0146,0.012,0.0138,0.0137,0.0141,0.0166,0.02,0.0237,0.0248,0.0314,0.0321,0.0303,0.0276,0.0165,0.0065,-0.0048,-0.0205,-0.0168,-0.0115,-0.0123,-0.0323,-0.0426,-0.0542,-0.0609,-0.0226,-0.0226,-0.0226,0,0.0173,0.0179,0.0175,0.019,0.0194,0.0228,0.0259,0.0273,0.0321,0.0395,0.0441,0.0434,0.0474,0.0338,0.0148,-0.0002,-0.017,-0.011,-0.0169,-0.0316,-0.0443,-0.0516,-0.057,-0.0123,-0.0122,-0.0121,-0.0121,0,0.0238,0.0224,0.0236,0.0258,0.0284,0.0324,0.0376,0.043,0.0474,0.0557,0.0674,0.0722,0.0601,0.0501,0.0267,0.0125,-0.0212,-0.0099,-0.0262,-0.0376,-0.0451,-0.0525,-0.0144,-0.0113,-0.0114,-0.0114,-0.0115,-0.0115,0.0291,0.0308,0.0309,0.0341,0.0372,0.0437,0.0509,0.0591,0.0708,0.0883,0.0887,0.1034,0.0828,0.054,0.0293,-0.0125,-0.0169,-0.0257,-0.037,-0.043,-0.05,-0.01,-0.0081,-0.0081,-0.0082,-0.0082,-0.0083,0,0.0355,0.0366,0.0396,0.0437,0.0499,0.0493,0.0602,0.0708,0.0894,0.1069,0.1219,0.1265,0.0979,0.0611,0.0069,-0.0299,-0.0464,-0.0517,-0.0624,-0.0668,-0.0308,-0.0308,-0.0324,-0.0323,-0.0323,-0.0323,-0.0323,-0.0323,0.0394,0.0427,0.0438,0.0546,0.0588,0.07,0.078,0.0947,0.1103,0.1391,0.1547,0.1637,0.1383,0.0372,-0.0355,-0.0561,-0.0864,-0.0928,-0.1083,-0.0858,-0.0843,-0.0829,-0.0853,-0.0983,-0.0983,-0.1368,-0.1373,-0.1376]}],[{"header":{"parameterUnit":"m.s-1","parameterCategory":2,"la1":30.2991,"la2":30.254,"lo1":-89.0895,"lo2":-89.0444,"dy":0.0017,"dx":0.0017,"nx":28,"ny":28,"refTime":"2025-07-14T09:00:00:Z","depth":"2","parameterNumber":2,"parameterNumberName":"U-component_of_CURRENTS"},"data":[0,0,0,0,0,0,0,0,0,0,0,0,0,0,0,0,0,0,0,0,0,0,0,0,0,0,0,0,0,0,0,0,0,0,0,0,0,0,0,0,0,0,0,0,0,0,0,0,0,0,0,0,0,0,0,0,0,0,-0.0388,-0.0386,0,-0.03,-0.03,-0.0299,-0.0214,-0.0213,-0.0211,-0.021,-0.018,-0.0181,-0.0181,0,0,0,0,0,0,0,0,0,0,0,0,0,-0.0477,-0.0476,-0.0388,-0.0386,-0.0385,-0.0301,-0.03,-0.0299,-0.0214,-0.0213,-0.0211,-0.0209,-0.018,-0.0181,-0.0182,0,0,0,0,0,0,0,0,0,0,0,0,0,-0.0424,-0.0476,-0.0388,-0.0329,-0.0322,-0.0301,-0.03,-0.0299,-0.0215,-0.0213,-0.021,-0.0208,-0.018,-0.0181,-0.0182,-0.0235,0,0,-0.0185,-0.0185,0,0,0,0,0,0,0,0,-0.0427,-0.0421,-0.0339,-0.0333,-0.0325,-0.0261,-0.032,-0.0279,-0.0215,-0.0261,-0.021,-0.0207,-0.0211,-0.021,-0.0205,-0.0233,-0.0232,-0.0185,-0.0185,-0.0186,-0.0186,0,0,0,0,0,0,0,-0.0431,-0.0424,-0.0358,-0.0337,-0.0329,-0.0304,-0.0295,-0.0312,-0.0255,-0.0257,-0.0249,-0.0232,-0.0208,-0.0204,-0.0203,-0.0232,-0.0185,-0.0186,-0.0186,-0.0187,-0.0136,-0.0134,0,0,0,0,0,0,-0.0434,-0.0428,-0.0361,-0.0355,-0.0366,-0.0304,-0.0294,-0.0288,-0.0254,-0.0244,-0.0234,-0.0228,-0.0203,-0.0202,-0.0202,-0.011,-0.0186,-0.0187,-0.0187,-0.0138,-0.0136,-0.0134,0,0,0,0,0,0,-0.0437,-0.043,-0.0364,-0.0385,-0.0374,-0.0305,-0.03,-0.0288,-0.0242,-0.0235,-0.0227,-0.0195,-0.0201,-0.0201,-0.0176,-0.0114,-0.0187,-0.0188,-0.014,-0.0137,-0.0135,-0.0026,0,0,0,0,0,0,-0.044,-0.0432,-0.0423,-0.0386,-0.0373,-0.0334,-0.0301,-0.0288,-0.0235,-0.0226,-0.02,-0.0196,-0.0199,-0.0174,-0.0176,-0.0117,-0.0189,-0.0143,-0.0139,-0.0136,-0.0032,-0.002,-0.0009,0,0,0,0,0,-0.0444,-0.0436,-0.0424,-0.0414,-0.0366,-0.0333,-0.0325,-0.0271,-0.0235,-0.022,-0.0188,-0.0195,-0.0151,-0.0174,-0.0177,-0.0117,-0.0145,-0.014,-0.0136,-0.0037,-0.0022,-0.0009,0,0,0,0,0,0,-0.0465,-0.0425,-0.0411,-0.039,-0.0357,-0.0316,-0.029,-0.0256,-0.022,-0.0198,-0.019,-0.0185,-0.0136,-0.0152,-0.0177,-0.009,-0.0142,-0.0138,-0.0066,-0.0052,-0.0041,-0.0017,-0.019,0,0,0,0,0,-0.0471,-0.0452,-0.0416,-0.0396,-0.038,-0.0333,-0.0307,-0.027,-0.0234,-0.0212,-0.0189,-0.016,-0.0131,-0.011,-0.0105,-0.0074,-0.0049,-0.0032,-0.002,-0.001,0.0008,0.0088,0.011,-0.0119,-0.0119,-0.0119,0,0,-0.0471,-0.0446,-0.0434,-0.0399,-0.0369,-0.0316,-0.0311,-0.0263,-0.0199,-0.0221,-0.0136,-0.0132,-0.0117,-0.0065,-0.0043,-0.0063,0.0073,-0.0005,0.0004,0.0017,0.0095,0.0118,0.0138,-0.0116,-0.0117,-0.0117,0,0,-0.0444,-0.0444,-0.0406,-0.0376,-0.0321,-0.0296,-0.0274,-0.0219,-0.0177,-0.0125,-0.0097,-0.005,-0.0031,0.0019,0.0041,0.0113,0.0123,0.0115,0.0203,0.0281,0.0301,0.0319,0.0405,0.043,0.013,0.0131,0.0131,0,-0.0441,-0.0388,-0.0391,-0.0336,-0.0293,-0.0276,-0.0209,-0.0173,-0.0109,-0.0067,-0.0083,0.0016,0.0021,0.0131,0.0164,0.0144,0.0186,0.0151,0.0299,0.0316,0.0333,0.0417,0.0443,0.0136,0.0136,0.0135,0.0134,0,-0.0371,-0.0322,-0.0299,-0.0222,-0.0189,-0.0137,-0.0087,-0.0043,-0.0004,0.0041,0.0134,0.0144,0.021,0.0228,0.0217,0.035,0.0342,0.0298,0.0267,0.0363,0.0445,0.047,0.0145,0.0142,0.0141,0.0139,0,0,-0.0364,-0.0268,-0.025,-0.0199,-0.0121,-0.0089,0.0004,0.0088,0.0167,0.021,0.032,0.0375,0.038,0.0405,0.0411,0.0483,0.0637,0.0447,0.0448,0.0541,0.083,0.079,0.0813,0.0619,0.0623,0.0626,0.085,0,-0.0294,-0.0183,-0.0145,-0.0032,0.0027,0.0065,0.0144,0.0218,0.0274,0.0369,0.0415,0.0494,0.0451,0.0486,0.0558,0.0608,0.0703,0.0581,0.0716,0.0721,0.068,0.0841,0.067,0.0851,0.0874,0.0878,0.0881,0,-0.0211,-0.0154,-0.0037,0.0063,0.0092,0.0155,0.0271,0.0345,0.0465,0.051,0.0601,0.0624,0.075,0.0676,0.0851,0.0774,0.0822,0.0856,0.0864,0.0805,0.0728,0.0753,0.0895,0.0922,0.0919,0.0916,0.0913,0,-0.0193,-0.0068,0.0021,0.0059,0.0167,0.0223,0.0277,0.039,0.0468,0.0604,0.0675,0.0796,0.0874,0.0948,0.1016,0.0944,0.1206,0.1106,0.1131,0.1129,0.1,0.0978,0.1253,0.1253,0.1252,0.1251,0.1251,0,-0.0126,-0.0046,0.0031,0.0079,0.0174,0.0237,0.0354,0.0426,0.0556,0.0677,0.0741,0.0863,0.0944,0.1083,0.1109,0.1227,0.129,0.1199,0.1202,0.1033,0.1013,0.1063,0.1038,0.126,0.1258,0.1256,0.1255,0,-0.0094,-0.0033,0.006,0.0155,0.0189,0.0249,0.0377,0.0467,0.0577,0.0742,0.079,0.0963,0.1148,0.1245,0.1405,0.1359,0.1456,0.1481,0.1287,0.1261,0.13,0.1278,0.1524,0.1525,0.1526,0.1527,0.1527,0,-0.0049,-0.0008,0.0088,0.0139,0.0187,0.028,0.0358,0.0468,0.0568,0.0807,0.0895,0.112,0.1252,0.1482,0.1466,0.1547,0.1596,0.1445,0.1259,0.136,0.1338,0.1314,0.1292,0.1148,0.1145,0.1143,0.1141,0,-0.0001,0.0017,0.0076,0.0166,0.0244,0.034,0.0451,0.0525,0.0686,0.0825,0.1046,0.1161,0.1338,0.1357,0.1444,0.1437,0.1401,0.1401,0.1619,0.1082,0.1017,0.099,0.0979,0.1122,0.1124,0.1126,0.1127,0.1127,0.0019,0.0054,0.0114,0.0206,0.0292,0.04,0.0478,0.0595,0.0743,0.0924,0.1056,0.1187,0.1165,0.1208,0.1241,0.1275,0.1303,0.1231,0.1234,0.1239,0.1133,0.1069,0.1167,0.1169,0.1171,0.1173,0.1174,0,0.0038,0.009,0.0164,0.0262,0.035,0.0412,0.0552,0.0605,0.0754,0.0909,0.1039,0.0947,0.0959,0.1059,0.1027,0.0986,0.0914,0.1015,0.0913,0.093,0.0946,0.0821,0.0776,0.0775,0.0775,0.0775,0,0,0.0051,0.0118,0.0156,0.0296,0.0383,0.0502,0.0585,0.0639,0.0732,0.0819,0.0895,0.0894,0.0961,0.084,0.0803,0.0844,0.0891,0.0809,0.1109,0.1004,0.1021,0.1032,0.0854,0,0,0,0,0]},{"header":{"parameterUnit":"m.s-1","parameterCategory":2,"la1":30.2991,"la2":30.254,"lo1":-89.0895,"lo2":-89.0444,"dy":0.0017,"dx":0.0017,"nx":28,"ny":28,"refTime":"2025-07-14T09:00:00:Z","depth":"2","parameterNumber":3,"parameterNumberName":"V-component_of_CURRENTS"},"data":[0,0,0,0,0,0,0,0,0,0,0,0,0,0,0,0,0,0,0,0,0,0,0,0,0,0,0,0,0,0,0,0,0,0,0,0,0,0,0,0,0,0,0,0,0,0,0,0,0,0,0,0,0,0,0,0,0,0,0.0152,0.0151,0,0.0067,0.0066,0.0066,0.0023,0.0022,0.0022,0.0021,-0.0039,-0.004,-0.0041,0,0,0,0,0,0,0,0,0,0,0,0,0,0.0261,0.0259,0.0152,0.0151,0.0149,0.0067,0.0066,0.0066,0.0023,0.0022,0.0022,0.0021,-0.0038,-0.004,-0.0041,0,0,0,0,0,0,0,0,0,0,0,0,0,0.0204,0.0259,0.0153,0.0114,0.0109,0.0067,0.0066,0.0066,0.0023,0.0022,0.0021,0.0021,-0.0038,-0.004,-0.0041,-0.0035,0,0,-0.0046,-0.0047,0,0,0,0,0,0,0,0,0.0207,0.0201,0.0121,0.0116,0.0111,0.005,0.0082,0.0031,0.0023,0.0062,0.0021,0.002,-0.001,-0.0014,-0.002,-0.0038,-0.004,-0.0046,-0.0047,-0.0048,-0.0049,0,0,0,0,0,0,0,0.0211,0.0204,0.0124,0.0119,0.0113,0.0094,0.0086,0.0073,0.0036,0.0058,0.0054,0.0035,-0.0012,-0.0019,-0.0022,-0.0041,-0.0046,-0.0048,-0.0049,-0.0049,-0.0089,-0.0089,0,0,0,0,0,0,0.0212,0.0208,0.0127,0.0121,0.0151,0.0092,0.0084,0.0075,0.0036,0.0027,0.0036,0.0033,-0.0016,-0.002,-0.0024,-0.0047,-0.0048,-0.005,-0.005,-0.0089,-0.0089,-0.0089,0,0,0,0,0,0,0.0215,0.0206,0.013,0.0157,0.0146,0.0091,0.0082,0.0073,0.004,0.0018,0.001,0.0008,-0.0016,-0.0022,-0.0053,-0.0048,-0.005,-0.0052,-0.0089,-0.0089,-0.0089,-0.0073,0,0,0,0,0,0,0.0219,0.0208,0.0204,0.0158,0.0144,0.0103,0.0082,0.0072,0.0029,0.0025,-0.0008,-0.0013,-0.0017,-0.005,-0.0055,-0.0051,-0.0053,-0.0088,-0.0089,-0.0089,-0.0074,-0.0073,-0.0072,0,0,0,0,0,0.0223,0.0218,0.0205,0.0195,0.014,0.0103,0.0095,0.0057,0.0028,0.0023,-0.0008,-0.0014,-0.0054,-0.0052,-0.0057,-0.0053,-0.0088,-0.0089,-0.0089,-0.0074,-0.0073,-0.0072,0,0,0,0,0,0,0.0252,0.0211,0.0196,0.0176,0.0141,0.0093,0.0078,0.0044,0.0013,0.0002,-0.0021,-0.0028,-0.0052,-0.0057,-0.0055,-0.0065,-0.0069,-0.007,-0.0056,-0.0056,-0.0055,-0.0049,-0.0054,0,0,0,0,0,0.026,0.025,0.0204,0.0185,0.017,0.012,0.0096,0.0066,0.0029,0.0013,-0.0015,-0.0038,-0.0051,-0.006,-0.0074,-0.0082,-0.0098,-0.0081,-0.008,-0.0079,-0.0078,-0.0108,-0.0109,-0.0089,-0.0089,-0.0089,0,0,0.0259,0.0238,0.0227,0.0191,0.0162,0.0149,0.0105,0.0065,0.0055,0.0013,-0.0011,-0.0043,-0.0056,-0.0064,-0.0074,-0.0071,-0.0092,-0.0079,-0.0078,-0.0078,-0.0108,-0.011,-0.0112,-0.0089,-0.0089,-0.0089,0,0,0.0257,0.0241,0.0233,0.0216,0.0171,0.0152,0.0135,0.0079,0.0059,0.003,-0.0002,-0.0038,-0.0057,-0.0067,-0.0071,-0.0076,-0.0093,-0.0079,-0.0064,-0.0093,-0.0095,-0.0097,-0.0115,-0.0119,-0.0071,-0.0071,-0.0071,0,0.0254,0.0249,0.0222,0.0216,0.0207,0.0154,0.0148,0.0127,0.0066,0.0054,0.0027,-0.0028,-0.0052,-0.0058,-0.0064,-0.0073,-0.0093,-0.0066,-0.0092,-0.0095,-0.0097,-0.0115,-0.0119,-0.0071,-0.0071,-0.0071,-0.0071,0,0.0248,0.0251,0.0245,0.0236,0.0225,0.0209,0.0182,0.0161,0.0124,0.0096,0.0059,0.0014,-0.002,-0.003,-0.0051,-0.0074,-0.0085,-0.0094,-0.0094,-0.0098,-0.0117,-0.0122,-0.0069,-0.007,-0.007,-0.007,0,0,0.0216,0.024,0.0234,0.0253,0.0238,0.0226,0.0227,0.0211,0.0207,0.0146,0.0133,0.0081,0.0028,0.0017,-0.0022,-0.0051,-0.0094,-0.0083,-0.0085,-0.0099,-0.0157,-0.0164,-0.017,-0.0114,-0.0115,-0.0116,-0.0162,0,0.0216,0.0233,0.0242,0.0264,0.0276,0.0266,0.0277,0.0257,0.0235,0.0213,0.0154,0.012,0.0059,0.0029,-0.0013,-0.0075,-0.0107,-0.008,-0.0152,-0.0154,-0.016,-0.0176,-0.0201,-0.0244,-0.0166,-0.0167,-0.0168,0,0.0195,0.0224,0.0243,0.0302,0.0304,0.0307,0.0322,0.0326,0.0302,0.0282,0.0231,0.0177,0.011,0.0061,-0.0048,-0.0032,-0.0099,-0.0143,-0.0146,-0.0162,-0.0171,-0.0229,-0.0256,-0.0176,-0.0175,-0.0175,-0.0174,0,0.0178,0.0224,0.0247,0.0259,0.0305,0.0312,0.0331,0.0328,0.0344,0.0309,0.0304,0.0219,0.0173,0.0074,-0.0041,-0.0053,-0.0146,-0.0167,-0.023,-0.023,-0.0269,-0.0271,-0.0239,-0.0239,-0.0239,-0.0239,-0.0239,0,0.0174,0.0194,0.0238,0.025,0.0288,0.0314,0.0341,0.0351,0.0366,0.0391,0.0321,0.0318,0.0169,0.0096,-0.0016,-0.0136,-0.0131,-0.0233,-0.0247,-0.0263,-0.0265,-0.0218,-0.0215,-0.0241,-0.024,-0.024,-0.024,0,0.014,0.0167,0.0203,0.0258,0.0274,0.0291,0.0358,0.0389,0.0398,0.0429,0.0416,0.0376,0.0284,0.0152,0.0009,-0.0094,-0.0208,-0.0247,-0.0251,-0.0265,-0.028,-0.0276,-0.0332,-0.0333,-0.0334,-0.0334,-0.0335,0,0.0122,0.0133,0.0191,0.022,0.024,0.0284,0.0323,0.0377,0.0425,0.0473,0.0494,0.0429,0.0389,0.0189,-0.0011,-0.0198,-0.0197,-0.0323,-0.0355,-0.0283,-0.0292,-0.0286,-0.0281,-0.04,-0.0401,-0.0401,-0.0402,0,0.0101,0.0107,0.0148,0.0205,0.0246,0.0318,0.0386,0.0437,0.0511,0.0548,0.0611,0.0587,0.0395,0.0182,-0.0075,-0.019,-0.0301,-0.0344,-0.0277,-0.0365,-0.0349,-0.0356,-0.0349,-0.0409,-0.0408,-0.0408,-0.0407,-0.0407,0.0081,0.0102,0.0149,0.0206,0.0266,0.0359,0.0439,0.0525,0.0616,0.0691,0.067,0.0616,0.0327,-0.0026,-0.0198,-0.0344,-0.0343,-0.0427,-0.0424,-0.0421,-0.0413,-0.0398,-0.0466,-0.0465,-0.0465,-0.0465,-0.0464,0,0.0081,0.0112,0.0161,0.0251,0.0332,0.0358,0.0495,0.0588,0.0715,0.0708,0.0732,0.0411,0.0173,-0.0052,-0.0303,-0.0479,-0.0477,-0.0495,-0.0487,-0.0481,-0.0475,-0.0469,-0.0537,-0.0537,-0.0537,-0.0537,0,0,0.0095,0.0132,0.0165,0.0291,0.036,0.05,0.0591,0.0711,0.0752,0.072,0.0637,0.0465,0.0157,-0.0083,-0.0312,-0.0394,-0.0375,-0.0397,-0.0332,-0.029,-0.0281,-0.0441,-0.0426,0,0,0,0,0]}],[{"header":{"parameterUnit":"m.s-1","parameterCategory":2,"la1":30.2991,"la2":30.254,"lo1":-89.0895,"lo2":-89.0444,"dy":0.0017,"dx":0.0017,"nx":28,"ny":28,"refTime":"2025-07-14T09:00:00:Z","depth":"4","parameterNumber":2,"parameterNumberName":"U-component_of_CURRENTS"},"data":[0,0,0,0,0,0,0,0,0,0,0,0,0,0,0,0,0,0,0,0,0,0,0,0,0,0,0,0,0,0,0,0,0,0,0,0,0,0,0,0,0,0,0,0,0,0,0,0,0,0,0,0,0,0,0,0,0,0,0.0001,0.0001,0,-0.0045,-0.0046,-0.0047,-0.0066,-0.0065,-0.0065,-0.0065,-0.0089,-0.009,-0.0091,0,0,0,0,0,0,0,0,0,0,0,0,0,0.0024,0.0024,0.0001,0.0001,0.0,-0.0045,-0.0046,-0.0047,-0.0066,-0.0065,-0.0065,-0.0065,-0.0089,-0.009,-0.0091,0,0,0,0,0,0,0,0,0,0,0,0,0,-0.0001,0.0024,0.0002,-0.0014,-0.0016,-0.0045,-0.0046,-0.0047,-0.0066,-0.0065,-0.0065,-0.0065,-0.0089,-0.009,-0.0091,-0.0104,0,0,-0.0095,-0.0095,0,0,0,0,0,0,0,0,0.0001,-0.0002,-0.0011,-0.0013,-0.0015,-0.0048,-0.0047,-0.0065,-0.0066,-0.0048,-0.0065,-0.0065,-0.0073,-0.0076,-0.0087,-0.0106,-0.0107,-0.0095,-0.0096,-0.0096,-0.0096,0,0,0,0,0,0,0,0.0002,-0.0,-0.0018,-0.0012,-0.0014,-0.0035,-0.0038,-0.0051,-0.0062,-0.0049,-0.005,-0.0054,-0.0074,-0.0085,-0.0087,-0.0107,-0.0095,-0.0096,-0.0097,-0.0097,-0.0158,-0.0159,0,0,0,0,0,0,0.0012,0.0002,-0.0017,-0.0019,-0.0005,-0.0036,-0.0039,-0.0039,-0.0062,-0.0065,-0.0054,-0.0055,-0.0083,-0.0086,-0.0088,-0.0123,-0.0096,-0.0097,-0.0098,-0.0157,-0.0158,-0.0159,0,0,0,0,0,0,0.0013,0.0011,-0.0015,-0.001,-0.0014,-0.0036,-0.0036,-0.004,-0.0057,-0.0066,-0.0069,-0.0068,-0.0083,-0.0086,-0.0105,-0.0123,-0.0098,-0.0099,-0.0156,-0.0158,-0.0159,-0.0181,0,0,0,0,0,0,0.0014,0.0012,0.0008,-0.0009,-0.0014,-0.0033,-0.0036,-0.0041,-0.0059,-0.0061,-0.0079,-0.0081,-0.0083,-0.0103,-0.0106,-0.0124,-0.01,-0.0155,-0.0157,-0.0159,-0.0179,-0.0183,-0.0186,0,0,0,0,0,0.0015,0.0007,0.0008,0.0005,-0.0016,-0.0033,-0.0038,-0.0054,-0.006,-0.0069,-0.0083,-0.008,-0.0116,-0.0105,-0.0108,-0.0127,-0.0154,-0.0156,-0.0158,-0.0177,-0.0182,-0.0186,0,0,0,0,0,0,0.0006,0.0004,0.0005,-0.0006,-0.0017,-0.0036,-0.0052,-0.0059,-0.0079,-0.0082,-0.009,-0.0093,-0.0117,-0.012,-0.0107,-0.015,-0.0136,-0.0138,-0.0149,-0.0153,-0.0157,-0.0138,-0.0101,0,0,0,0,0,0.0006,0.0001,-0.0004,-0.0015,-0.002,-0.0037,-0.0049,-0.0055,-0.0071,-0.008,-0.0091,-0.0108,-0.0128,-0.0138,-0.015,-0.0174,-0.0153,-0.0189,-0.0192,-0.0195,-0.0183,-0.0184,-0.0186,-0.0166,-0.0166,-0.0166,0,0,-0.0004,-0.0005,-0.001,-0.0017,-0.003,-0.0038,-0.0044,-0.0062,-0.0069,-0.0079,-0.0099,-0.0118,-0.0136,-0.0162,-0.0173,-0.0167,-0.0187,-0.0198,-0.02,-0.0185,-0.0186,-0.0188,-0.019,-0.0167,-0.0167,-0.0167,0,0,-0.0021,-0.0023,-0.003,-0.0035,-0.0045,-0.005,-0.0054,-0.007,-0.0079,-0.0098,-0.0112,-0.0134,-0.0165,-0.0178,-0.0191,-0.022,-0.0205,-0.0237,-0.0241,-0.0244,-0.0245,-0.0246,-0.0204,-0.0201,-0.0241,-0.0241,-0.0241,0,-0.0033,-0.0035,-0.0038,-0.0042,-0.0045,-0.0054,-0.0058,-0.0072,-0.0091,-0.0096,-0.0104,-0.0152,-0.0168,-0.0199,-0.0216,-0.0226,-0.0215,-0.0224,-0.0247,-0.0247,-0.0248,-0.0205,-0.0202,-0.0242,-0.0242,-0.0242,-0.0242,0,-0.0048,-0.0051,-0.0059,-0.0059,-0.0063,-0.0071,-0.0075,-0.0082,-0.0094,-0.0105,-0.0133,-0.016,-0.0182,-0.0207,-0.0224,-0.0247,-0.0231,-0.0249,-0.0232,-0.0251,-0.0205,-0.0201,-0.0244,-0.0244,-0.0243,-0.0243,0,0,-0.0071,-0.0067,-0.007,-0.0063,-0.0067,-0.0068,-0.0076,-0.0082,-0.0084,-0.0113,-0.012,-0.0173,-0.0186,-0.02,-0.0228,-0.0243,-0.0239,-0.0255,-0.0254,-0.0205,-0.0217,-0.0147,-0.0135,-0.0271,-0.0271,-0.0271,-0.0176,0,-0.0082,-0.0081,-0.0077,-0.0077,-0.0075,-0.0072,-0.0074,-0.0079,-0.0089,-0.0097,-0.013,-0.0151,-0.0185,-0.0201,-0.0222,-0.0241,-0.0232,-0.026,-0.0213,-0.021,-0.014,-0.013,-0.0271,-0.0173,-0.0172,-0.0171,-0.0171,0,-0.0095,-0.0088,-0.0084,-0.0067,-0.0065,-0.0064,-0.0052,-0.0057,-0.0069,-0.0077,-0.0102,-0.0125,-0.0153,-0.0178,-0.0193,-0.0215,-0.0208,-0.0217,-0.0214,-0.0135,-0.0133,-0.0156,-0.0162,-0.0163,-0.0164,-0.0164,-0.0165,0,-0.0096,-0.0092,-0.0082,-0.0079,-0.0065,-0.0057,-0.0051,-0.0053,-0.0051,-0.0063,-0.0062,-0.0097,-0.0105,-0.0126,-0.0141,-0.0172,-0.0137,-0.0175,-0.0091,-0.0085,-0.0166,-0.0167,-0.0159,-0.0159,-0.0159,-0.0159,-0.0159,0,-0.0101,-0.0095,-0.008,-0.0074,-0.0058,-0.0049,-0.0037,-0.0034,-0.0031,-0.0025,-0.0052,-0.0049,-0.0099,-0.0091,-0.0111,-0.0071,-0.0102,-0.007,-0.0058,-0.0176,-0.0178,-0.0161,-0.0163,-0.0156,-0.0156,-0.0157,-0.0158,0,-0.0103,-0.0096,-0.0084,-0.0065,-0.0058,-0.0046,-0.0025,-0.0017,-0.0012,-0.0001,-0.0003,-0.0008,0.001,-0.0003,-0.0011,-0.0008,0.0007,0.0036,-0.0042,-0.004,0.0057,0.0053,0.0139,0.0142,0.0145,0.0147,0.0149,0,-0.0101,-0.0097,-0.0077,-0.0066,-0.0056,-0.0039,-0.0026,-0.0013,-0.0001,0.0026,0.0035,0.0064,0.0062,0.0127,0.01,0.0126,0.0115,0.0145,0.0056,0.0084,0.0087,0.0078,0.0071,0.0153,0.0154,0.0154,0.0155,0,-0.0103,-0.0099,-0.0088,-0.0065,-0.0048,-0.0023,-0.0,0.0014,0.0035,0.0036,0.0085,0.0114,0.0161,0.0165,0.0211,0.0207,0.0125,0.0173,0.0166,0.0082,0.0102,0.01,0.009,0.0165,0.0163,0.0162,0.0162,0,-0.0111,-0.0103,-0.0091,-0.0067,-0.004,-0.0001,0.0009,0.0044,0.0064,0.0096,0.0115,0.0149,0.016,0.0213,0.0236,0.0265,0.0246,0.023,0.0219,0.0208,0.0185,0.0218,0.0346,0,0,0,0,0,-0.0121,-0.0109,-0.009,-0.0054,-0.002,0.0001,0.003,0.004,0.0061,0.0105,0.0115,0.0159,0.0221,0.0236,0.0279,0.0268,0.0242,0.0319,0.0215,0.0217,0.0206,0.0171,0,0,0,0,0,0,-0.0128,-0.0116,-0.0096,-0.0042,-0.0009,0.0033,0.0056,0.0071,0.01,0.0118,0.0147,0.0172,0.0221,0.0195,0.0279,0.0288,0.023,0.0344,0.0345,0.0223,0.0213,0.0204,0.0165,0,0,0,0,0]},{"header":{"parameterUnit":"m.s-1","parameterCategory":2,"la1":30.2991,"la2":30.254,"lo1":-89.0895,"lo2":-89.0444,"dy":0.0017,"dx":0.0017,"nx":28,"ny":28,"refTime":"2025-07-14T09:00:00:Z","depth":"4","parameterNumber":3,"parameterNumberName":"V-component_of_CURRENTS"},"data":[0,0,0,0,0,0,0,0,0,0,0,0,0,0,0,0,0,0,0,0,0,0,0,0,0,0,0,0,0,0,0,0,0,0,0,0,0,0,0,0,0,0,0,0,0,0,0,0,0,0,0,0,0,0,0,0,0,0,-0.0319,-0.0319,0,-0.0336,-0.0337,-0.0337,-0.0389,-0.039,-0.0391,-0.0392,-0.042,-0.042,-0.042,0,0,0,0,0,0,0,0,0,0,0,0,0,-0.0328,-0.0328,-0.0319,-0.0319,-0.0319,-0.0336,-0.0337,-0.0337,-0.0389,-0.039,-0.0391,-0.0392,-0.042,-0.042,-0.042,0,0,0,0,0,0,0,0,0,0,0,0,0,-0.0335,-0.0328,-0.0319,-0.0345,-0.0347,-0.0336,-0.0337,-0.0337,-0.0389,-0.039,-0.0392,-0.0393,-0.042,-0.042,-0.042,-0.0392,0,0,-0.0419,-0.0419,0,0,0,0,0,0,0,0,-0.0335,-0.0335,-0.0341,-0.0343,-0.0345,-0.036,-0.035,-0.0355,-0.0389,-0.0376,-0.0392,-0.0393,-0.0398,-0.0399,-0.0404,-0.0393,-0.0394,-0.0419,-0.0419,-0.0419,-0.0419,0,0,0,0,0,0,0,-0.0334,-0.0335,-0.0328,-0.0341,-0.0343,-0.0355,-0.0357,-0.0352,-0.0381,-0.0377,-0.038,-0.0377,-0.04,-0.0404,-0.0405,-0.0395,-0.0419,-0.0419,-0.0419,-0.0419,-0.0451,-0.0452,0,0,0,0,0,0,-0.0325,-0.0334,-0.0328,-0.0329,-0.034,-0.0353,-0.0356,-0.0356,-0.0381,-0.0386,-0.0376,-0.038,-0.0403,-0.0405,-0.0406,-0.0445,-0.0419,-0.0419,-0.0419,-0.045,-0.0451,-0.0452,0,0,0,0,0,0,-0.0325,-0.0325,-0.0327,-0.033,-0.0331,-0.0351,-0.035,-0.0355,-0.0383,-0.038,-0.0386,-0.0401,-0.0404,-0.0406,-0.0421,-0.0443,-0.0419,-0.0419,-0.0449,-0.0451,-0.0452,-0.0477,0,0,0,0,0,0,-0.0326,-0.0325,-0.033,-0.0329,-0.033,-0.0323,-0.0349,-0.0355,-0.0376,-0.0382,-0.0402,-0.0405,-0.0405,-0.0421,-0.042,-0.0443,-0.0418,-0.0448,-0.045,-0.0451,-0.0475,-0.0479,-0.0483,0,0,0,0,0,-0.0326,-0.0322,-0.033,-0.033,-0.0334,-0.0322,-0.0324,-0.0345,-0.0376,-0.0379,-0.0404,-0.0406,-0.0433,-0.0421,-0.042,-0.0443,-0.0447,-0.0449,-0.0451,-0.0473,-0.0478,-0.0483,0,0,0,0,0,0,-0.033,-0.0326,-0.0336,-0.0332,-0.0329,-0.033,-0.0336,-0.0355,-0.0378,-0.0393,-0.0406,-0.041,-0.0432,-0.0432,-0.042,-0.046,-0.0444,-0.0446,-0.0461,-0.0466,-0.047,-0.0478,-0.0418,0,0,0,0,0,-0.033,-0.0327,-0.0324,-0.0321,-0.0322,-0.0336,-0.034,-0.0351,-0.0364,-0.0378,-0.0397,-0.042,-0.0435,-0.0447,-0.0452,-0.0466,-0.0464,-0.0485,-0.0489,-0.0492,-0.05,-0.0522,-0.0528,-0.0459,-0.0459,-0.0459,0,0,-0.0329,-0.0327,-0.0326,-0.0321,-0.0327,-0.0333,-0.0343,-0.0347,-0.0367,-0.0374,-0.0417,-0.0427,-0.0441,-0.0462,-0.0473,-0.0469,-0.0507,-0.0495,-0.0497,-0.0503,-0.0525,-0.0531,-0.0537,-0.0461,-0.0461,-0.046,0,0,-0.0322,-0.0326,-0.0325,-0.0325,-0.0327,-0.0334,-0.034,-0.0353,-0.0376,-0.04,-0.0422,-0.0446,-0.0469,-0.0486,-0.0498,-0.0524,-0.0522,-0.0535,-0.0565,-0.0586,-0.0592,-0.0597,-0.0584,-0.0588,-0.0542,-0.0542,-0.0542,0,-0.0324,-0.0328,-0.0321,-0.0324,-0.0334,-0.0341,-0.0353,-0.0367,-0.0388,-0.041,-0.0418,-0.0475,-0.0483,-0.0521,-0.0538,-0.0533,-0.0537,-0.0544,-0.0591,-0.0596,-0.0601,-0.0587,-0.0591,-0.0543,-0.0543,-0.0543,-0.0543,0,-0.032,-0.033,-0.0329,-0.0342,-0.0347,-0.0353,-0.0367,-0.0387,-0.0421,-0.0442,-0.0487,-0.0499,-0.0539,-0.0547,-0.0554,-0.0599,-0.0586,-0.0587,-0.0577,-0.0609,-0.0592,-0.0596,-0.0546,-0.0545,-0.0545,-0.0544,0,0,-0.0313,-0.0326,-0.0329,-0.0346,-0.0363,-0.0364,-0.0395,-0.0425,-0.0455,-0.0486,-0.0531,-0.0568,-0.0585,-0.06,-0.0611,-0.0634,-0.0664,-0.0635,-0.0636,-0.0619,-0.0694,-0.0649,-0.0648,-0.0681,-0.0682,-0.0683,-0.0661,0,-0.0322,-0.0332,-0.0341,-0.0368,-0.0381,-0.04,-0.0427,-0.0454,-0.0483,-0.0521,-0.0553,-0.0593,-0.0603,-0.0626,-0.0653,-0.0662,-0.0678,-0.0668,-0.067,-0.0669,-0.0623,-0.0654,-0.0687,-0.0664,-0.0665,-0.0665,-0.0666,0,-0.0326,-0.0334,-0.0357,-0.039,-0.0399,-0.0418,-0.0464,-0.0489,-0.0534,-0.0557,-0.0603,-0.0627,-0.0674,-0.0672,-0.0711,-0.0708,-0.071,-0.071,-0.0709,-0.0664,-0.0632,-0.0631,-0.0672,-0.0671,-0.0671,-0.067,-0.067,0,-0.0329,-0.0353,-0.0376,-0.0386,-0.0416,-0.0442,-0.0469,-0.0508,-0.0526,-0.0588,-0.0601,-0.0662,-0.068,-0.0715,-0.072,-0.0729,-0.074,-0.0745,-0.0699,-0.0694,-0.0727,-0.0722,-0.0771,-0.0771,-0.0771,-0.0771,-0.0771,0,-0.034,-0.0361,-0.038,-0.0393,-0.0422,-0.045,-0.0486,-0.0517,-0.0551,-0.0566,-0.0625,-0.0632,-0.0697,-0.0708,-0.0725,-0.0715,-0.0744,-0.0708,-0.0696,-0.0735,-0.0731,-0.0728,-0.0723,-0.077,-0.0771,-0.0771,-0.0771,0,-0.0344,-0.0357,-0.0379,-0.0411,-0.0424,-0.0448,-0.0484,-0.05,-0.0538,-0.0555,-0.0577,-0.0615,-0.0631,-0.0662,-0.0693,-0.0698,-0.0706,-0.0689,-0.0704,-0.0691,-0.0642,-0.0639,-0.0651,-0.065,-0.0648,-0.0647,-0.0646,0,-0.0347,-0.0358,-0.0383,-0.0388,-0.0408,-0.0439,-0.0455,-0.0496,-0.0504,-0.0528,-0.0528,-0.0553,-0.0575,-0.0566,-0.0618,-0.0641,-0.0641,-0.0646,-0.0679,-0.0649,-0.0635,-0.0634,-0.0633,-0.0644,-0.0644,-0.0644,-0.0643,0,-0.035,-0.0358,-0.0368,-0.0376,-0.0392,-0.041,-0.0438,-0.0434,-0.0469,-0.0488,-0.0472,-0.0492,-0.0491,-0.0528,-0.054,-0.0562,-0.0657,-0.0633,-0.0637,-0.0668,-0.064,-0.0628,-0.0628,-0.0639,-0.064,-0.064,-0.064,0,-0.0347,-0.0346,-0.0352,-0.0358,-0.0372,-0.0385,-0.0402,-0.0403,-0.0413,-0.043,-0.0414,-0.0437,-0.0458,-0.0483,-0.0497,-0.0516,-0.053,-0.0549,-0.0558,-0.0563,-0.0553,-0.0506,-0.0458,0,0,0,0,0,-0.0343,-0.0335,-0.0335,-0.0342,-0.0353,-0.0367,-0.0387,-0.04,-0.0413,-0.0385,-0.0399,-0.0396,-0.0418,-0.0437,-0.0444,-0.0492,-0.055,-0.0504,-0.058,-0.0614,-0.0619,-0.062,0,0,0,0,0,0,-0.0339,-0.0335,-0.0326,-0.0326,-0.0328,-0.0347,-0.0361,-0.0373,-0.0359,-0.0366,-0.0371,-0.0387,-0.0408,-0.0397,-0.0435,-0.0446,-0.0494,-0.0521,-0.0521,-0.0611,-0.0616,-0.062,-0.0623,0,0,0,0,0]}]]